Epoch = 2008 Apr. 4.0 TT T = 2008 Mar. 27.18204 TT Peri. = 60.90568 e = 0.2869197 Node = 181.78845 2000.0 q = 3.3311264 AU Incl. = 19.86243 a = 4.6714603 AU n = 0.09761691 P = 10.10 years
H = 15.0 G = 0.15